N0ZMJ-3 Weather Reports


Display with metric or nautical units.
time (UTC)temp
F
wind
direction
speed
MPH
gust
MPH
rain 1hr
in
rain 24hr
in
rain mn
in
humidity
%
barometer
mb
20260903111427 71 98 0.0 1.0 0.00 0.00 0.00 100 1006.3
20260903111002 71 98 0.0 0.0 0.00 0.00 0.00 100 1006.5
20260903110427 71 98 0.0 0.0 0.00 0.00 0.00 100 1006.4
20260903110301 71 98 0.0 0.0 0.00 0.00 0.00 100 1006.4
20260903105607 71 98 0.0 0.0 0.00 0.00 0.00 100 1006.4
20260903105427 71 98 0.0 2.0 0.00 0.00 0.00 100 1006.3
20260903104902 71 98 0.0 4.0 0.00 0.00 0.00 100 1006.2
20260903104429 71 98 1.0 4.0 0.00 0.00 0.00 100 1006.2
20260903104200 71 98 1.0 4.0 0.00 0.00 0.00 100 1006.2
20260903103504 71 98 1.0 4.0 0.00 0.00 0.00 100 1006.3
20260903103429 71 98 1.0 4.0 0.00 0.00 0.00 100 1006.3
20260903102800 71 98 2.0 4.0 0.00 0.00 0.00 100 1006.3
20260903102429 71 98 0.0 3.0 0.00 0.00 0.00 100 1006.3
20260903102100 71 98 0.0 3.0 0.00 0.00 0.00 100 1006.3
20260903101429 71 85 1.0 3.0 0.00 0.00 0.00 100 1006.3
20260903101401 71 85 1.0 3.0 0.00 0.00 0.00 100 1006.3
20260903100700 71 85 1.0 4.0 0.00 0.00 0.00 100 1006.4
20260903100428 71 85 1.0 4.0 0.00 0.00 0.00 100 1006.4
20260903100006 71 85 1.0 2.0 0.00 0.00 0.00 100 1006.5
20260903095428 71 85 0.0 0.0 0.00 0.00 0.00 100 1006.5
20260903095300 71 85 0.0 0.0 0.00 0.00 0.00 100 1006.5
20260903094600 71 85 0.0 0.0 0.00 0.00 0.00 100 1006.6
20260903094428 71 85 0.0 0.0 0.00 0.00 0.00 100 1006.5
20260903093859 71 85 0.0 1.0 0.00 0.00 0.00 100 1006.6
20260903093428 71 85 0.0 1.0 0.00 0.00 0.00 100 1006.5
20260903093200 71 85 0.0 1.0 0.00 0.00 0.00 100 1006.5
20260903092507 71 85 0.0 1.0 0.00 0.00 0.00 100 1006.6
20260903092428 71 85 0.0 1.0 0.00 0.00 0.00 100 1006.6
20260903091800 71 85 0.0 1.0 0.00 0.00 0.00 100 1006.6
20260903091428 71 85 0.0 1.0 0.00 0.00 0.00 100 1006.6
20260903091101 71 85 0.0 1.0 0.00 0.00 0.00 100 1006.6
20260903090428 71 85 0.0 0.0 0.00 0.00 0.00 100 1006.7
20260903090400 71 85 0.0 0.0 0.00 0.00 0.00 100 1006.7
20260903085701 71 85 0.0 1.0 0.00 0.00 0.00 100 1006.8
20260903085428 71 85 0.0 1.0 0.00 0.00 0.00 100 1006.8
20260903085001 71 85 0.0 0.0 0.00 0.00 0.00 100 1006.8
20260903084428 71 85 0.0 0.0 0.00 0.00 0.00 100 1006.8
20260903084303 71 85 0.0 0.0 0.00 0.00 0.00 100 1006.8
20260903083600 71 85 0.0 1.0 0.00 0.00 0.00 100 1006.8
20260903083428 71 85 0.0 1.0 0.00 0.00 0.00 100 1006.8
20260903082903 71 85 0.0 0.0 0.00 0.00 0.00 100 1006.8
20260903082428 72 85 0.0 2.0 0.00 0.00 0.00 100 1006.8
20260903082200 72 85 0.0 2.0 0.00 0.00 0.00 100 1006.8
20260903081503 72 85 0.0 3.0 0.00 0.00 0.00 100 1006.8
20260903081428 72 85 0.0 3.0 0.00 0.00 0.00 100 1006.8
20260903080801 72 85 1.0 3.0 0.00 0.00 0.00 100 1007.0
20260903080428 72 85 1.0 4.0 0.00 0.00 0.00 100 1006.8
20260903075428 71 85 3.0 6.0 0.00 0.00 0.00 100 1006.9
20260903075359 71 85 3.0 6.0 0.00 0.00 0.00 100 1006.9
20260903074703 71 86 3.0 5.0 0.00 0.00 0.00 100 1006.8
20260903074429 71 93 4.0 5.0 0.00 0.00 0.00 100 1006.9
20260903074001 71 91 3.0 5.0 0.00 0.00 0.00 100 1007.1
20260903073428 71 90 3.0 5.0 0.00 0.00 0.00 100 1007.1
20260903073300 71 90 3.0 5.0 0.00 0.00 0.00 100 1007.1
20260903072603 71 90 2.0 3.0 0.00 0.00 0.00 100 1007.3
20260903072428 71 90 1.0 2.0 0.00 0.00 0.00 100 1007.4
20260903071859 71 90 0.0 1.0 0.00 0.00 0.00 100 1007.6
20260903071428 71 90 0.0 3.0 0.00 0.00 0.00 100 1007.6
20260903071203 71 90 0.0 3.0 0.00 0.00 0.00 100 1007.6
20260903070502 71 90 0.0 2.0 0.00 0.00 0.00 100 1007.7
20260903070428 71 90 0.0 2.0 0.00 0.00 0.00 100 1007.7
20260903065759 71 90 0.0 1.0 0.00 0.00 0.00 100 1007.8
20260903065428 71 90 0.0 1.0 0.00 0.00 0.00 100 1007.9
20260903065103 71 90 0.0 1.0 0.00 0.00 0.00 100 1007.9
20260903064428 72 90 0.0 1.0 0.00 0.00 0.00 100 1007.8
20260903064359 72 90 0.0 1.0 0.00 0.00 0.00 100 1007.8
20260903063703 72 90 0.0 2.0 0.00 0.00 0.00 100 1007.8
20260903063428 72 90 0.0 2.0 0.00 0.00 0.00 100 1007.8
20260903063000 72 90 1.0 3.0 0.00 0.00 0.00 100 1007.8
20260903062428 72 90 1.0 5.0 0.00 0.00 0.00 100 1007.8
20260903062300 72 90 1.0 5.0 0.00 0.00 0.00 100 1007.8
20260903061601 72 90 2.0 5.0 0.00 0.00 0.00 100 1007.7
20260903061428 72 90 3.0 4.0 0.00 0.00 0.00 100 1007.8
20260903060900 72 90 2.0 4.0 0.00 0.00 0.00 100 1007.8
20260903060428 72 90 2.0 4.0 0.00 0.00 0.00 100 1007.8
20260903060201 72 90 2.0 4.0 0.00 0.00 0.00 100 1007.8
20260903055428 72 90 1.0 4.0 0.00 0.00 0.00 100 1007.9
20260903054800 72 90 1.0 4.0 0.00 0.00 0.00 100 1007.9
20260903054428 73 90 0.0 1.0 0.00 0.00 0.00 100 1008.0
20260903054101 73 90 0.0 1.0 0.00 0.00 0.00 100 1008.0
20260903053428 73 90 1.0 3.0 0.00 0.00 0.00 100 1008.2
20260903053403 73 90 1.0 3.0 0.00 0.00 0.00 100 1008.2
20260903052704 73 90 1.0 3.0 0.00 0.00 0.00 100 1008.2
20260903052429 73 90 1.0 3.0 0.00 0.00 0.00 100 1008.2
20260903052001 73 90 2.0 4.0 0.00 0.00 0.00 100 1008.2
20260903051428 73 90 2.0 4.0 0.00 0.00 0.00 100 1008.2
20260903051259 73 90 2.0 4.0 0.00 0.00 0.00 100 1008.2
20260903050600 73 90 1.0 2.0 0.00 0.00 0.00 100 1008.3
20260903050428 73 90 1.0 2.0 0.00 0.00 0.00 100 1008.4
20260903045904 73 90 0.0 1.0 0.00 0.00 0.00 100 1008.4
20260903045428 73 90 0.0 2.0 0.00 0.00 0.00 100 1008.4
20260903045159 73 90 0.0 2.0 0.00 0.00 0.00 100 1008.4
20260903044428 73 90 1.0 2.0 0.00 0.00 0.00 100 1008.5
20260903043806 73 90 0.0 1.0 0.00 0.00 0.00 100 1008.5
20260903043428 73 90 0.0 1.0 0.00 0.00 0.00 99 1008.6
20260903043059 73 90 0.0 1.0 0.00 0.00 0.00 99 1008.6
20260903042428 74 90 0.0 0.0 0.00 0.00 0.00 99 1008.5
20260903042359 74 90 0.0 0.0 0.00 0.00 0.00 99 1008.5
20260903041700 74 90 0.0 1.0 0.00 0.00 0.00 98 1008.6
20260903041428 74 90 0.0 1.0 0.00 0.00 0.00 98 1008.7
20260903040959 74 90 0.0 1.0 0.00 0.00 0.00 97 1008.6
20260903040428 74 90 0.0 0.0 0.00 0.00 0.00 97 1008.7
20260903040259 74 90 0.0 0.0 0.00 0.00 0.00 97 1008.7
20260903035602 75 90 0.0 3.0 0.00 0.00 0.00 96 1008.7
20260903035427 75 90 0.0 3.0 0.00 0.00 0.00 96 1008.5
20260903034859 75 90 1.0 3.0 0.00 0.00 0.00 96 1008.4
20260903034427 75 90 0.0 1.0 0.00 0.00 0.00 95 1008.5
20260903034203 75 90 0.0 1.0 0.00 0.00 0.00 95 1008.5
20260903033459 76 90 1.0 3.0 0.00 0.00 0.00 94 1008.5
20260903033427 76 90 1.0 3.0 0.00 0.00 0.00 94 1008.5
20260903032759 76 90 2.0 3.0 0.00 0.00 0.00 94 1008.5
20260903032427 76 90 0.0 4.0 0.00 0.00 0.00 94 1008.6
20260903032059 76 90 0.0 4.0 0.00 0.00 0.00 94 1008.6
20260903031429 77 90 2.0 4.0 0.00 0.00 0.00 94 1008.4
20260903031404 77 90 2.0 4.0 0.00 0.00 0.00 94 1008.4
20260903030704 77 90 0.0 2.0 0.00 0.00 0.00 92 1008.6
20260903030428 77 90 1.0 2.0 0.00 0.00 0.00 92 1008.7
20260903030002 78 90 0.0 2.0 0.00 0.00 0.00 91 1008.8
20260903025428 78 90 0.0 2.0 0.00 0.00 0.00 91 1008.7
20260903025300 78 90 0.0 2.0 0.00 0.00 0.00 91 1008.7
20260903024602 78 90 1.0 2.0 0.00 0.00 0.00 91 1008.8
20260903024428 78 90 0.0 3.0 0.00 0.00 0.00 91 1008.8
20260903023903 78 90 0.0 3.0 0.00 0.00 0.00 90 1008.8
20260903023427 78 90 1.0 4.0 0.00 0.00 0.00 90 1008.8
20260903023159 78 90 1.0 4.0 0.00 0.00 0.00 90 1008.8
20260903022500 79 90 2.0 4.0 0.00 0.00 0.00 89 1008.8
20260903022427 79 90 2.0 4.0 0.00 0.00 0.00 89 1008.8
20260903021759 79 90 2.0 3.0 0.00 0.00 0.00 89 1008.7
20260903021428 79 90 1.0 2.0 0.00 0.01 0.00 88 1008.7
20260903021103 79 90 1.0 2.0 0.00 0.01 0.00 88 1008.7
20260903020428 80 90 2.0 4.0 0.00 0.01 0.00 86 1008.5
20260903020359 80 90 2.0 4.0 0.00 0.01 0.00 86 1008.5
20260903015701 80 90 2.0 4.0 0.00 0.01 0.00 86 1008.5
20260903015428 80 90 2.0 4.0 0.00 0.01 0.00 85 1008.5
20260903014959 80 90 2.0 4.0 0.00 0.02 0.00 85 1008.3
20260903014428 81 90 2.0 4.0 0.00 0.02 0.00 84 1008.3
20260903014300 81 90 2.0 4.0 0.00 0.02 0.00 84 1008.3
20260903013603 81 90 1.0 4.0 0.00 0.02 0.00 84 1008.3
20260903013427 81 90 2.0 4.0 0.00 0.02 0.00 84 1008.2
20260903012859 81 90 2.0 3.0 0.00 0.02 0.00 83 1008.1
20260903012427 81 90 1.0 3.0 0.00 0.02 0.00 83 1008.0
20260903012158 81 90 1.0 3.0 0.00 0.02 0.00 83 1008.0
20260903011500 82 90 0.0 2.0 0.00 0.02 0.00 81 1008.0
20260903011427 82 90 0.0 2.0 0.00 0.02 0.00 81 1008.0
20260903010759 82 90 1.0 4.0 0.00 0.02 0.00 81 1008.1
20260903010429 82 90 2.0 5.0 0.00 0.02 0.00 80 1008.0
20260903005429 83 93 2.0 4.0 0.00 0.02 0.00 79 1008.0
20260903005400 83 93 2.0 4.0 0.00 0.02 0.00 79 1008.0
20260903004701 83 88 2.0 4.0 0.00 0.02 0.00 79 1008.0
20260903004429 84 88 0.0 4.0 0.00 0.02 0.00 78 1008.0
20260903004000 84 88 2.0 4.0 0.00 0.02 0.00 77 1008.0
20260903003429 84 88 1.0 4.0 0.00 0.02 0.00 76 1007.9
20260903003300 84 88 1.0 4.0 0.00 0.02 0.00 76 1007.9
20260903002606 85 88 2.0 4.0 0.00 0.02 0.00 76 1008.1
20260903002428 85 88 2.0 4.0 0.00 0.02 0.00 75 1007.8
20260903001900 85 88 2.0 4.0 0.00 0.02 0.00 75 1007.9
20260903001428 85 96 2.0 4.0 0.00 0.02 0.00 74 1007.8
20260903001159 85 96 2.0 4.0 0.00 0.02 0.00 74 1007.8
20260903000500 86 98 1.0 4.0 0.00 0.02 0.00 73 1008.0
20260903000427 86 98 1.0 4.0 0.00 0.02 0.00 73 1008.0
20260902235804 86 133 1.0 5.0 0.00 0.02 0.00 72 1008.0
20260902235427 86 134 2.0 5.0 0.00 0.02 0.00 72 1007.9
20260902235103 86 134 2.0 5.0 0.00 0.02 0.00 72 1007.9
20260902234429 87 101 2.0 7.0 0.00 0.02 0.00 71 1008.0
20260902234400 87 101 2.0 7.0 0.00 0.02 0.00 71 1008.0
20260902233700 87 113 2.0 7.0 0.00 0.02 0.00 70 1008.0
20260902233429 87 149 1.0 5.0 0.00 0.02 0.00 71 1008.0
20260902233000 87 85 3.0 6.0 0.00 0.02 0.00 70 1007.9
20260902232428 87 83 4.0 6.0 0.00 0.02 0.00 70 1007.9
20260902232300 87 83 4.0 6.0 0.00 0.02 0.00 70 1007.9
20260902231600 87 178 1.0 7.0 0.00 0.02 0.00 69 1008.1
20260902231428 87 117 2.0 7.0 0.00 0.02 0.00 68 1008.0
20260902230902 87 145 2.0 6.0 0.00 0.02 0.00 68 1008.1
20260902230428 87 144 2.0 7.0 0.00 0.02 0.00 69 1008.1
20260902230200 87 144 2.0 7.0 0.00 0.02 0.00 69 1008.1
20260902225500 87 131 1.0 7.0 0.00 0.02 0.00 69 1008.1
20260902225428 87 131 1.0 7.0 0.00 0.02 0.00 69 1008.1
20260902224801 87 91 4.0 7.0 0.00 0.02 0.00 68 1008.1
20260902224428 88 199 1.0 5.0 0.00 0.02 0.00 68 1008.1
20260902224104 88 199 1.0 5.0 0.00 0.02 0.00 68 1008.1
20260902223428 88 117 2.0 6.0 0.00 0.02 0.00 67 1008.1
20260902223406 88 117 2.0 6.0 0.00 0.02 0.00 67 1008.1
20260902222659 88 172 2.0 8.0 0.00 0.02 0.00 67 1008.0
20260902222428 88 109 3.0 8.0 0.00 0.02 0.00 67 1008.1
20260902222000 88 130 2.0 10.0 0.00 0.02 0.00 67 1008.1
20260902221428 88 103 4.0 10.0 0.00 0.02 0.00 67 1008.0
20260902221301 88 103 4.0 10.0 0.00 0.02 0.00 67 1008.0
20260902220600 88 114 2.0 10.0 0.00 0.02 0.00 67 1008.0
20260902220427 89 115 3.0 10.0 0.00 0.02 0.00 66 1008.0
20260902215900 89 83 5.0 8.0 0.00 0.02 0.00 66 1008.0
20260902215427 89 85 3.0 7.0 0.00 0.02 0.00 66 1008.0
20260902215201 89 85 3.0 7.0 0.00 0.02 0.00 66 1008.0
20260902214458 89 137 2.0 11.0 0.00 0.02 0.00 65 1008.1
20260902214427 89 137 2.0 11.0 0.00 0.02 0.00 65 1008.1
20260902213759 89 89 6.0 11.0 0.00 0.02 0.00 64 1008.1
20260902213427 89 89 3.0 8.0 0.00 0.02 0.00 65 1008.2
20260902213103 89 89 3.0 8.0 0.00 0.02 0.00 65 1008.2
20260902212429 89 111 4.0 7.0 0.00 0.02 0.00 65 1008.2
20260902212401 89 111 4.0 7.0 0.00 0.02 0.00 65 1008.2
20260902211700 89 154 2.0 8.0 0.00 0.02 0.00 66 1008.1
20260902211429 88 95 4.0 8.0 0.00 0.02 0.00 65 1008.2
20260902211000 88 164 2.0 8.0 0.00 0.02 0.00 66 1008.3
20260902210429 88 94 4.0 10.0 0.00 0.02 0.00 65 1008.4
20260902210300 88 94 4.0 10.0 0.00 0.02 0.00 65 1008.4
20260902205601 88 96 6.0 10.0 0.00 0.02 0.00 66 1008.4
20260902205428 88 96 5.0 10.0 0.00 0.02 0.00 66 1008.5
20260902204902 88 92 5.0 10.0 0.00 0.02 0.00 66 1008.5
20260902204428 88 134 1.0 6.0 0.00 0.02 0.00 66 1008.5
20260902204203 88 134 1.0 6.0 0.00 0.02 0.00 66 1008.5
20260902203500 87 100 4.0 8.0 0.00 0.02 0.00 67 1008.6
20260902203428 87 100 4.0 8.0 0.00 0.02 0.00 67 1008.6
20260902202801 87 96 4.0 10.0 0.00 0.02 0.00 68 1008.7
20260902202428 87 97 6.0 10.0 0.00 0.02 0.00 68 1008.6
20260902202100 87 97 6.0 10.0 0.00 0.02 0.00 68 1008.6
20260902201428 87 140 2.0 11.0 0.00 0.02 0.00 70 1008.7
20260902201400 87 140 2.0 11.0 0.00 0.02 0.00 70 1008.7
20260902200659 87 93 4.0 11.0 0.00 0.02 0.00 70 1008.6
20260902200428 87 87 4.0 11.0 0.00 0.02 0.00 70 1008.7
20260902200002 87 98 7.0 11.0 0.00 0.02 0.00 69 1008.7
20260902195428 86 98 4.0 13.0 0.00 0.02 0.00 72 1008.9
20260902195306 86 98 4.0 13.0 0.00 0.02 0.00 72 1008.9
20260902194602 86 94 7.0 13.0 0.00 0.02 0.00 71 1009.0
20260902194427 86 98 6.0 10.0 0.00 0.02 0.00 72 1008.9
20260902193859 86 83 5.0 10.0 0.00 0.02 0.00 73 1008.9
20260902193428 86 100 4.0 9.0 0.00 0.02 0.00 74 1009.0
20260902193200 86 100 4.0 9.0 0.00 0.02 0.00 74 1009.0
20260902192500 86 82 7.0 11.0 0.00 0.02 0.00 73 1009.1
20260902192427 86 82 7.0 11.0 0.00 0.02 0.00 73 1009.1
20260902191759 86 88 3.0 11.0 0.00 0.02 0.00 73 1009.1
20260902191427 86 99 7.0 11.0 0.00 0.02 0.00 73 1009.2
20260902191059 86 99 7.0 11.0 0.00 0.02 0.00 73 1009.2
20260902190427 85 104 4.0 9.0 0.00 0.02 0.00 73 1009.6
20260902190400 85 104 4.0 9.0 0.00 0.02 0.00 73 1009.6
20260902185701 85 83 5.0 9.0 0.00 0.02 0.00 73 1009.5
20260902185429 85 104 5.0 9.0 0.00 0.02 0.00 72 1009.5
20260902185000 85 93 5.0 9.0 0.00 0.02 0.00 72 1009.6
20260902184429 85 189 2.0 8.0 0.00 0.02 0.00 74 1009.7
20260902184305 85 189 2.0 8.0 0.00 0.02 0.00 74 1009.7
20260902183603 85 145 2.0 8.0 0.00 0.02 0.00 73 1009.8
20260902183428 85 96 3.0 7.0 0.00 0.02 0.00 73 1009.7
20260902182900 84 121 2.0 7.0 0.00 0.02 0.00 73 1009.8
20260902182428 84 133 3.0 8.0 0.00 0.02 0.00 72 1009.9
20260902182201 84 133 3.0 8.0 0.00 0.02 0.00 72 1009.9
20260902181500 84 99 5.0 10.0 0.00 0.02 0.00 73 1009.8
20260902181428 84 99 5.0 10.0 0.00 0.02 0.00 73 1009.8
20260902180801 84 117 3.0 8.0 0.00 0.02 0.00 73 1009.9
20260902180428 84 129 3.0 8.0 0.00 0.02 0.00 73 1010.1
20260902180100 84 129 3.0 8.0 0.00 0.02 0.00 73 1010.1
20260902175427 83 93 4.0 10.0 0.00 0.02 0.00 74 1010.1
20260902175359 83 93 4.0 10.0 0.00 0.02 0.00 74 1010.1
20260902174702 83 101 3.0 11.0 0.00 0.02 0.00 74 1010.2
20260902174427 83 86 7.0 11.0 0.00 0.02 0.00 73 1010.0
20260902174001 82 110 2.0 9.0 0.00 0.02 0.00 75 1010.0
20260902173429 82 96 4.0 9.0 0.00 0.02 0.00 75 1010.2
20260902173301 82 96 4.0 9.0 0.00 0.02 0.00 75 1010.2
20260902172600 82 87 6.0 8.0 0.00 0.02 0.00 76 1010.2
20260902172429 81 83 4.0 10.0 0.00 0.02 0.00 76 1010.3
20260902171900 81 89 6.0 10.0 0.00 0.02 0.00 75 1010.3
20260902171428 81 79 5.0 8.0 0.00 0.02 0.00 76 1010.3
20260902171200 81 79 5.0 8.0 0.00 0.02 0.00 76 1010.3
20260902170503 80 90 4.0 9.0 0.00 0.02 0.00 76 1010.5
20260902170428 80 90 4.0 9.0 0.00 0.02 0.00 76 1010.5
20260902165802 80 68 4.0 8.0 0.00 0.02 0.00 77 1010.5
20260902165428 80 105 3.0 8.0 0.00 0.02 0.00 77 1010.5
20260902165101 80 105 3.0 8.0 0.00 0.02 0.00 77 1010.5
20260902164428 79 91 6.0 8.0 0.00 0.02 0.00 79 1010.6
20260902164400 79 91 6.0 8.0 0.00 0.02 0.00 79 1010.6
20260902163703 79 101 4.0 8.0 0.00 0.02 0.00 80 1010.6
20260902163428 79 132 2.0 9.0 0.00 0.02 0.00 81 1010.7
20260902162959 78 101 4.0 9.0 0.00 0.02 0.00 82 1010.7
20260902162428 78 102 4.0 8.0 0.00 0.02 0.00 82 1010.8
20260902162259 78 102 4.0 8.0 0.00 0.02 0.00 82 1010.8
20260902161600 77 50 2.0 9.0 0.00 0.02 0.00 84 1010.7
20260902161427 77 95 5.0 9.0 0.00 0.02 0.00 84 1010.7
20260902160902 76 98 3.0 8.0 0.00 0.02 0.00 86 1010.7
20260902160427 76 92 5.0 8.0 0.00 0.02 0.00 87 1010.9
20260902160200 76 92 5.0 8.0 0.00 0.02 0.00 87 1010.9
20260902155503 74 89 3.0 10.0 0.00 0.02 0.00 89 1010.7
20260902155428 74 89 3.0 10.0 0.00 0.02 0.00 89 1010.7
20260902154800 74 91 6.0 10.0 0.00 0.02 0.00 89 1010.8
20260902154428 74 93 3.0 7.0 0.00 0.02 0.00 91 1010.8
20260902154100 74 93 3.0 7.0 0.00 0.02 0.00 91 1010.8
20260902153428 73 83 4.0 8.0 0.00 0.02 0.00 91 1010.8
20260902153401 73 83 4.0 8.0 0.00 0.02 0.00 91 1010.8
20260902152659 73 93 3.0 7.0 0.00 0.02 0.00 93 1010.8
20260902152428 73 100 3.0 6.0 0.00 0.02 0.00 93 1010.7
20260902152000 72 144 1.0 5.0 0.00 0.02 0.00 94 1010.9
20260902151428 72 123 1.0 4.0 0.00 0.02 0.00 95 1010.9
20260902151303 72 123 1.0 4.0 0.00 0.02 0.00 95 1010.9
20260902150603 71 146 1.0 6.0 0.00 0.02 0.00 96 1010.9
20260902150428 70 106 1.0 6.0 0.00 0.02 0.00 96 1011.0
20260902145859 70 120 3.0 6.0 0.00 0.02 0.00 97 1010.9
20260902145427 69 103 2.0 6.0 0.00 0.02 0.00 98 1010.7
20260902145202 69 103 2.0 6.0 0.00 0.02 0.00 98 1010.7
20260902144459 67 98 2.0 4.0 0.00 0.02 0.00 100 1010.8
20260902144427 67 98 2.0 4.0 0.00 0.02 0.00 100 1010.8
20260902143812 66 98 1.0 3.0 0.00 0.02 0.00 100 1010.8
20260902143427 66 98 0.0 5.0 0.00 0.02 0.00 100 1011.1
20260902143103 66 98 0.0 5.0 0.00 0.02 0.00 100 1011.1
20260902142429 64 136 2.0 4.0 0.00 0.02 0.00 100 1011.0
20260902142404 64 136 2.0 4.0 0.00 0.02 0.00 100 1011.0
20260902141704 64 149 1.0 5.0 0.00 0.02 0.00 100 1011.1
20260902141428 64 159 2.0 5.0 0.00 0.02 0.00 100 1011.6
20260902141000 64 170 1.0 5.0 0.00 0.02 0.00 100 1012.2
20260902140427 64 132 2.0 3.0 0.00 0.02 0.00 100 1012.1
20260902140301 64 132 2.0 3.0 0.00 0.02 0.00 100 1012.1
20260902135606 65 41 1.0 3.0 0.00 0.02 0.00 100 1011.4
20260902135427 65 39 1.0 2.0 0.00 0.02 0.00 100 1011.0
20260902134902 65 39 0.0 3.0 0.00 0.02 0.00 100 1011.2
20260902134427 65 39 1.0 3.0 0.00 0.02 0.00 100 1011.3
20260902134158 65 39 1.0 3.0 0.00 0.02 0.00 100 1011.3
20260902133459 65 39 1.0 2.0 0.00 0.02 0.00 100 1011.5
20260902133427 65 39 1.0 2.0 0.00 0.02 0.00 100 1011.5
20260902132802 65 39 0.0 2.0 0.00 0.02 0.00 100 1011.4
20260902132429 65 39 1.0 4.0 0.00 0.02 0.00 100 1011.4
20260902132102 65 39 1.0 4.0 0.00 0.02 0.00 100 1011.4
20260902131428 64 46 1.0 3.0 0.00 0.02 0.00 100 1011.4
20260902131402 64 46 1.0 3.0 0.00 0.02 0.00 100 1011.4
20260902130708 63 49 1.0 3.0 0.00 0.02 0.00 100 1011.5
20260902130428 63 354 1.0 4.0 0.00 0.02 0.00 100 1011.6
20260902130000 63 351 1.0 4.0 0.00 0.02 0.00 100 1011.8
20260902125428 63 48 1.0 3.0 0.00 0.02 0.00 100 1011.9
20260902125308 63 48 1.0 3.0 0.00 0.02 0.00 100 1011.9
20260902124606 62 83 1.0 3.0 0.00 0.02 0.00 100 1011.9
20260902124428 62 83 0.0 3.0 0.00 0.02 0.00 100 1012.0
20260902123859 62 91 0.0 3.0 0.00 0.02 0.00 100 1012.0
20260902123428 62 92 0.0 0.0 0.00 0.02 0.00 100 1011.9
20260902123200 62 92 0.0 0.0 0.00 0.02 0.00 100 1011.9
20260902122500 61 92 0.0 0.0 0.00 0.02 0.00 100 1011.4
20260902122428 61 92 0.0 0.0 0.00 0.02 0.00 100 1011.4
20260902121801 61 92 0.0 0.0 0.00 0.02 0.00 100 1010.9
20260902121427 61 92 0.0 0.0 0.00 0.02 0.00 100 1011.0
20260902121100 61 92 0.0 0.0 0.00 0.02 0.00 100 1011.0
20260902120427 61 92 0.0 1.0 0.00 0.02 0.00 100 1010.9
20260902120405 61 92 0.0 1.0 0.00 0.02 0.00 100 1010.9
20260902115658 61 92 0.0 1.0 0.00 0.02 0.00 100 1010.9
20260902115427 61 92 0.0 1.0 0.00 0.02 0.00 100 1010.9
20260902115000 61 92 0.0 1.0 0.00 0.02 0.00 100 1010.9
20260902114427 61 92 0.0 0.0 0.00 0.02 0.00 100 1010.7
20260902114259 61 92 0.0 0.0 0.00 0.02 0.00 100 1010.7
20260902113604 62 92 0.0 0.0 0.00 0.02 0.00 100 1010.5
20260902113429 62 92 0.0 0.0 0.00 0.02 0.00 100 1010.6
20260902112900 62 92 0.0 1.0 0.00 0.02 0.00 100 1010.5
20260902112429 62 92 0.0 1.0 0.00 0.02 0.00 100 1010.4
20260902112204 62 92 0.0 1.0 0.00 0.02 0.00 100 1010.4
20260902111500 62 92 0.0 0.0 0.00 0.02 0.00 100 1010.3